Location: Northam
(31.6525°S, 116.6655°E)
Time: 03:51:30
(UTC+08:00)

OTV 5 (USA 277) - Visible Passes

Search period start: 22 August 2019 00:00
Search period end: 01 September 2019 00:00
Orbit: 305 x 329 km, 54.5° (Epoch: 20 August)

Date Brightness Start Highest point End Pass type
(mag) Time Alt. Az. Time Alt. Az. Time Alt. Az.
27 Aug ? 06:06:49 10° N 06:09:11 27° NE 06:11:35 10° ESE visible
29 Aug ? 05:02:30 10° NNE 05:04:07 15° ENE 05:05:46 10° E visible
30 Aug ? 05:17:29 31° NNW 05:18:29 55° NE 05:21:11 10° SE visible
31 Aug ? 05:32:30 30° WSW 05:33:02 34° SW 05:35:37 10° SSE visible
